CW9133 Weather Reports


Display with metric or nautical units.
time (UTC)temp
F
wind
direction
speed
MPH
gust
MPH
rain 1hr
in
rain 24hr
in
rain mn
in
humidity
%
barometer
mb
20170817172302 77 227 4.0 10.0 0.00 0.29 0.04 82 1007.7
20170817171801 77 220 5.0 12.0 0.00 0.29 0.04 82 1007.8
20170817171302 77 222 4.0 12.0 0.00 0.29 0.04 82 1007.8
20170817170801 77 204 3.0 7.0 0.00 0.29 0.04 83 1007.8
20170817170301 76 217 3.0 8.0 0.00 0.29 0.04 85 1007.8
20170817165801 76 208 2.0 6.0 0.00 0.29 0.04 86 1007.8
20170817165302 75 201 3.0 9.0 0.00 0.29 0.04 86 1007.9
20170817164802 75 197 7.0 12.0 0.00 0.29 0.04 86 1008.0
20170817164302 75 219 6.0 14.0 0.00 0.29 0.04 87 1008.1
20170817163801 75 203 5.0 10.0 0.00 0.29 0.04 87 1008.1
20170817163302 74 210 4.0 14.0 0.00 0.29 0.04 89 1008.1
20170817162802 74 226 6.0 12.0 0.00 0.29 0.04 88 1008.1
20170817162302 74 219 4.0 12.0 0.00 0.29 0.04 89 1008.2
20170817161801 74 199 5.0 10.0 0.00 0.29 0.04 89 1008.2
20170817161301 74 209 6.0 12.0 0.00 0.29 0.04 89 1008.2
20170817160802 74 216 5.0 10.0 0.00 0.29 0.04 89 1008.3
20170817160302 74 214 5.0 12.0 0.00 0.29 0.04 89 1008.3
20170817155801 74 200 3.0 6.0 0.00 0.29 0.04 89 1008.3
20170817155302 74 209 5.0 12.0 0.00 0.29 0.04 89 1008.3
20170817154802 74 192 5.0 8.0 0.00 0.29 0.04 89 1008.3
20170817154301 73 223 3.0 8.0 0.00 0.29 0.04 90 1008.3
20170817153801 73 223 5.0 7.0 0.00 0.29 0.04 90 1008.2
20170817153302 73 219 7.0 16.0 0.00 0.29 0.04 90 1008.2
20170817152802 73 204 3.0 14.0 0.00 0.29 0.04 90 1008.3
20170817152302 73 210 6.0 13.0 0.00 0.29 0.04 90 1008.4
20170817151801 73 219 7.0 15.0 0.00 0.29 0.04 90 1008.3
20170817151302 73 214 5.0 13.0 0.00 0.29 0.04 91 1008.2
20170817150802 73 193 4.0 8.0 0.00 0.29 0.04 91 1008.3
20170817150302 73 214 5.0 6.0 0.00 0.29 0.04 92 1008.2
20170817145802 73 208 5.0 12.0 0.00 0.29 0.04 91 1008.2
20170817145302 73 220 4.0 9.0 0.00 0.29 0.04 92 1008.3
20170817144802 73 206 5.0 12.0 0.00 0.29 0.04 92 1008.2
20170817144302 72 199 7.0 12.0 0.00 0.29 0.04 91 1008.2
20170817143802 72 203 4.0 12.0 0.00 0.29 0.04 92 1008.0
20170817143302 72 222 5.0 10.0 0.00 0.29 0.04 92 1008.0
20170817142802 72 186 5.0 12.0 0.00 0.29 0.04 92 1008.0
20170817142302 72 209 3.0 8.0 0.00 0.29 0.04 92 1008.1
20170817141802 72 186 6.0 12.0 0.00 0.29 0.04 92 1008.1
20170817141302 72 199 5.0 10.0 0.00 0.29 0.04 92 1008.2
20170817140802 72 191 5.0 10.0 0.00 0.29 0.04 92 1008.3
20170817140302 72 190 4.0 9.0 0.00 0.29 0.04 92 1008.4
20170817135801 72 209 5.0 10.0 0.00 0.29 0.04 92 1008.5
20170817135302 72 188 5.0 9.0 0.00 0.29 0.04 92 1008.4
20170817134802 72 207 5.0 8.0 0.00 0.29 0.04 92 1008.5
20170817134302 72 189 3.0 8.0 0.00 0.29 0.04 93 1008.5
20170817133802 72 195 6.0 12.0 0.00 0.29 0.04 93 1008.5
20170817133302 72 190 3.0 7.0 0.00 0.29 0.04 94 1008.6
20170817132802 72 189 5.0 8.0 0.00 0.29 0.04 94 1008.6
20170817132302 72 203 4.0 9.0 0.00 0.29 0.04 94 1008.6
20170817131802 72 223 3.0 9.0 0.00 0.29 0.04 94 1008.8
20170817131301 72 200 3.0 12.0 0.00 0.29 0.04 94 1008.8
20170817130803 72 195 3.0 9.0 0.01 0.29 0.04 94 1008.9
20170817130302 72 207 3.0 8.0 0.02 0.29 0.04 94 1009.0
20170817125802 72 214 2.0 8.0 0.03 0.29 0.04 95 1009.0
20170817125302 72 205 5.0 8.0 0.03 0.29 0.04 95 1009.1
20170817124801 72 181 3.0 9.0 0.03 0.29 0.04 95 1009.0
20170817124302 72 222 3.0 7.0 0.04 0.29 0.04 95 1009.1
20170817123802 71 190 2.0 5.0 0.04 0.29 0.04 95 1008.9
20170817123302 71 193 2.0 5.0 0.04 0.29 0.04 95 1008.8
20170817122802 71 217 2.0 3.0 0.04 0.29 0.04 94 1008.9
20170817122302 71 210 3.0 5.0 0.04 0.29 0.04 94 1008.8
20170817121802 72 201 2.0 6.0 0.04 0.29 0.04 94 1008.8
20170817121302 72 195 4.0 8.0 0.04 0.29 0.04 94 1008.9
20170817120802 72 212 4.0 7.0 0.03 0.28 0.03 93 1008.9
20170817120302 72 179 4.0 8.0 0.02 0.27 0.02 93 1008.8
20170817115801 72 174 3.0 8.0 0.01 0.26 0.01 93 1008.8
20170817115302 72 179 5.0 9.0 0.01 0.26 0.01 92 1008.8
20170817114802 72 203 4.0 7.0 0.01 0.26 0.01 92 1008.8
20170817114302 72 194 3.0 6.0 0.00 0.25 0.00 92 1008.8
20170817113802 72 186 3.0 8.0 0.00 0.25 0.00 92 1008.6
20170817113302 72 208 4.0 7.0 0.00 0.25 0.00 92 1008.7
20170817112801 72 180 3.0 5.0 0.00 0.25 0.00 92 1008.7
20170817112302 72 183 2.0 9.0 0.00 0.25 0.00 92 1008.7
20170817111802 72 172 3.0 7.0 0.00 0.25 0.00 92 1008.7
20170817111303 72 190 3.0 9.0 0.00 0.25 0.00 92 1008.7
20170817110802 73 191 5.0 8.0 0.00 0.25 0.00 92 1008.7
20170817110302 73 182 5.0 8.0 0.00 0.25 0.00 92 1008.7
20170817105802 73 192 4.0 8.0 0.00 0.25 0.00 91 1008.7
20170817105305 73 190 5.0 6.0 0.00 0.25 0.00 91 1008.7
20170817104802 73 194 4.0 7.0 0.00 0.25 0.00 91 1008.6
20170817104302 73 189 3.0 6.0 0.00 0.25 0.00 91 1008.7
20170817103802 73 213 3.0 7.0 0.00 0.25 0.00 90 1008.6
20170817103302 73 180 4.0 6.0 0.00 0.25 0.00 90 1008.6
20170817102803 73 177 4.0 12.0 0.00 0.25 0.00 89 1008.7
20170817102302 73 180 4.0 8.0 0.00 0.25 0.00 89 1008.6
20170817101802 74 179 3.0 9.0 0.00 0.25 0.00 89 1008.4
20170817101302 74 197 3.0 8.0 0.00 0.25 0.00 89 1008.4
20170817100302 74 186 3.0 6.0 0.00 0.25 0.00 88 1008.5
20170817095802 74 184 5.0 8.0 0.00 0.25 0.00 88 1008.5
20170817095302 74 188 3.0 8.0 0.00 0.25 0.00 88 1008.6
20170817094801 74 181 4.0 9.0 0.00 0.25 0.00 88 1008.6
20170817094302 74 177 4.0 7.0 0.00 0.25 0.00 88 1008.8
20170817093802 74 200 5.0 12.0 0.00 0.25 0.00 88 1008.8
20170817093302 74 195 5.0 12.0 0.00 0.25 0.00 88 1008.8
20170817092803 74 178 3.0 8.0 0.00 0.25 0.00 88 1008.9
20170817092302 74 182 3.0 6.0 0.00 0.25 0.00 88 1008.8
20170817091802 74 205 4.0 8.0 0.00 0.25 0.00 88 1008.7
20170817091302 74 173 3.0 6.0 0.00 0.25 0.00 88 1008.6
20170817090802 74 209 5.0 10.0 0.00 0.25 0.00 88 1008.6
20170817090302 74 191 4.0 9.0 0.00 0.25 0.00 88 1008.6
20170817085802 74 198 3.0 8.0 0.00 0.25 0.00 89 1008.5
20170817085302 74 190 2.0 3.0 0.00 0.25 0.00 89 1008.6
20170817084803 74 206 3.0 6.0 0.00 0.25 0.00 88 1008.7
20170817084302 74 184 3.0 6.0 0.00 0.25 0.00 88 1008.8
20170817083802 74 184 5.0 10.0 0.00 0.25 0.00 88 1009.0
20170817083302 74 174 5.0 10.0 0.00 0.25 0.00 88 1009.1
20170817082802 74 208 4.0 7.0 0.00 0.25 0.00 88 1009.2
20170817082305 74 200 5.0 9.0 0.00 0.25 0.00 87 1009.1
20170817081802 74 177 3.0 7.0 0.00 0.25 0.00 87 1008.8
20170817081302 75 175 2.0 3.0 0.00 0.25 0.00 86 1008.8
20170817080802 75 162 3.0 6.0 0.00 0.25 0.00 86 1008.9
20170817080302 75 175 3.0 7.0 0.00 0.25 0.00 86 1008.9
20170817075803 75 206 4.0 8.0 0.00 0.25 0.00 85 1009.0
20170817075304 75 197 3.0 8.0 0.00 0.25 0.00 85 1009.1
20170817074803 75 216 4.0 6.0 0.00 0.25 0.00 85 1009.0
20170817074302 75 193 3.0 6.0 0.00 0.25 0.00 85 1009.1
20170817073802 75 211 3.0 7.0 0.00 0.25 0.00 86 1009.0
20170817073302 75 178 3.0 7.0 0.00 0.25 0.00 86 1008.9
20170817072802 76 181 3.0 5.0 0.00 0.25 0.00 87 1008.9
20170817072302 76 200 3.0 6.0 0.00 0.25 0.00 87 1009.0
20170817071803 76 183 2.0 5.0 0.00 0.25 0.00 87 1009.0
20170817071302 76 186 2.0 6.0 0.00 0.25 0.00 87 1008.9
20170817070803 76 170 2.0 5.0 0.00 0.25 0.00 87 1009.0
20170817070303 76 190 2.0 5.0 0.00 0.25 0.00 86 1009.1
20170817065802 76 206 2.0 3.0 0.00 0.25 0.00 86 1009.2
20170817065302 76 186 3.0 8.0 0.00 0.25 0.00 86 1009.3
20170817064803 76 183 2.0 5.0 0.00 0.25 0.00 86 1009.3
20170817064302 76 179 3.0 6.0 0.00 0.25 0.00 86 1009.4
20170817063803 76 190 4.0 7.0 0.00 0.25 0.00 86 1009.4
20170817063302 76 204 3.0 6.0 0.00 0.25 0.00 86 1009.2
20170817062802 76 201 4.0 9.0 0.00 0.25 0.00 86 1009.3
20170817062302 76 181 4.0 12.0 0.00 0.25 0.00 86 1009.5
20170817061802 76 182 4.0 12.0 0.00 0.25 0.00 87 1009.5
20170817061302 76 207 5.0 8.0 0.00 0.25 0.00 88 1009.5
20170817060802 76 185 3.0 6.0 0.00 0.25 0.00 89 1009.5
20170817060303 76 186 3.0 5.0 0.00 0.25 0.00 90 1009.5
20170817055802 76 179 3.0 5.0 0.00 0.25 0.00 90 1009.6
20170817055302 76 172 3.0 7.0 0.00 0.25 0.00 89 1009.6
20170817054803 76 178 2.0 6.0 0.00 0.25 0.00 89 1009.6
20170817054303 76 187 2.0 3.0 0.00 0.25 0.00 88 1009.6
20170817053802 77 185 2.0 7.0 0.00 0.25 0.00 88 1009.7
20170817053302 77 180 3.0 9.0 0.00 0.25 0.00 88 1009.7
20170817052802 77 183 3.0 13.0 0.00 0.25 0.00 87 1009.8
20170817052302 77 203 4.0 9.0 0.00 0.25 0.00 88 1009.8
20170817051803 76 192 5.0 10.0 0.00 0.25 0.00 90 1010.0
20170817051302 76 182 3.0 10.0 0.00 0.25 0.00 91 1010.1
20170817050817 76 190 3.0 9.0 0.00 0.25 0.00 92 1010.2
20170817050303 76 189 3.0 6.0 0.00 0.25 0.00 92 1010.3
20170817045802 76 178 2.0 8.0 0.00 0.25 0.25 92 1010.3
20170817045302 76 172 4.0 6.0 0.00 0.25 0.25 92 1010.2
20170817044802 76 183 3.0 8.0 0.00 0.25 0.25 92 1010.2
20170817044302 76 193 4.0 9.0 0.00 0.25 0.25 92 1010.2
20170817043802 76 177 4.0 8.0 0.00 0.25 0.25 92 1010.3
20170817043303 76 195 3.0 6.0 0.00 0.25 0.25 91 1010.4
20170817042802 76 198 3.0 5.0 0.00 0.25 0.25 91 1010.5
20170817042303 76 186 4.0 9.0 0.00 0.25 0.25 91 1010.5
20170817041802 76 181 5.0 10.0 0.00 0.25 0.25 91 1010.4
20170817041303 77 168 3.0 10.0 0.00 0.25 0.25 90 1010.4
20170817040802 77 167 5.0 9.0 0.00 0.25 0.25 90 1010.3
20170817040303 77 184 4.0 10.0 0.00 0.25 0.25 90 1010.5
20170817035802 77 180 5.0 9.0 0.00 0.25 0.25 91 1010.5
20170817035302 76 172 3.0 8.0 0.00 0.25 0.25 91 1010.4
20170817034803 76 173 3.0 6.0 0.00 0.25 0.25 91 1010.4
20170817034302 76 163 6.0 8.0 0.00 0.25 0.25 91 1010.4
20170817033802 76 188 3.0 10.0 0.00 0.25 0.25 91 1010.3
20170817033302 76 184 3.0 8.0 0.00 0.25 0.25 92 1010.2
20170817032803 76 166 2.0 6.0 0.00 0.25 0.25 92 1010.2
20170817032303 76 160 2.0 7.0 0.00 0.25 0.25 92 1010.2
20170817031802 76 135 1.0 6.0 0.00 0.25 0.25 93 1010.4
20170817031302 76 161 2.0 8.0 0.00 0.25 0.25 93 1010.4
20170817030802 76 148 1.0 3.0 0.00 0.25 0.25 93 1010.5
20170817030302 76 178 2.0 5.0 0.00 0.25 0.25 93 1010.6
20170817025803 76 161 1.0 5.0 0.00 0.25 0.25 93 1010.7
20170817025302 76 144 2.0 3.0 0.00 0.25 0.25 94 1010.6
20170817024802 76 146 2.0 3.0 0.00 0.25 0.25 94 1010.8
20170817024303 76 162 2.0 3.0 0.00 0.25 0.25 94 1010.9
20170817023803 76 123 2.0 5.0 0.00 0.25 0.25 94 1011.0
20170817023302 76 176 2.0 8.0 0.00 0.25 0.25 94 1011.2
20170817022803 75 178 3.0 6.0 0.00 0.25 0.25 94 1011.2
20170817022303 75 140 2.0 3.0 0.00 0.25 0.25 94 1011.1
20170817021802 75 162 2.0 5.0 0.00 0.25 0.25 94 1011.1
20170817021303 75 173 2.0 3.0 0.00 0.25 0.25 94 1011.5
20170817020803 75 169 1.0 3.0 0.00 0.25 0.25 94 1011.7
20170817020303 75 183 1.0 3.0 0.00 0.25 0.25 94 1011.7
20170817015802 75 135 2.0 5.0 0.00 0.25 0.25 94 1011.7
20170817015303 75 154 1.0 3.0 0.00 0.25 0.25 94 1011.6
20170817014803 75 181 2.0 3.0 0.00 0.25 0.25 94 1011.6
20170817014303 75 173 1.0 3.0 0.00 0.25 0.25 94 1011.5
20170817013803 75 173 1.0 3.0 0.00 0.25 0.25 94 1011.6
20170817013303 75 173 1.0 2.0 0.00 0.25 0.25 94 1011.6
20170817012803 75 173 1.0 2.0 0.00 0.25 0.25 94 1011.5
20170817012304 75 173 1.0 3.0 0.00 0.25 0.25 94 1011.5
20170817011803 75 173 1.0 2.0 0.00 0.25 0.25 94 1011.5
20170817011302 76 183 1.0 3.0 0.00 0.25 0.25 94 1011.4
20170817010802 76 167 1.0 3.0 0.00 0.25 0.25 94 1011.5
20170817010302 76 131 1.0 2.0 0.00 0.25 0.25 94 1011.5
20170817005804 76 130 1.0 2.0 0.00 0.25 0.25 94 1011.5
20170817005302 76 130 0.0 2.0 0.00 0.25 0.25 94 1011.5
20170817004802 76 130 1.0 2.0 0.00 0.25 0.25 94 1011.5
20170817004303 76 126 1.0 2.0 0.00 0.25 0.25 95 1011.6
20170817003803 76 126 0.0 0.0 0.00 0.25 0.25 95 1011.6
20170817003303 76 126 0.0 2.0 0.00 0.25 0.25 95 1011.7
20170817002803 76 124 0.0 1.0 0.00 0.25 0.25 95 1011.7
20170817002302 76 124 0.0 0.0 0.00 0.25 0.25 95 1011.6
20170817001802 76 124 0.0 1.0 0.00 0.25 0.25 95 1011.6
20170817001303 76 124 0.0 2.0 0.00 0.25 0.25 95 1011.6
20170817000803 76 127 0.0 2.0 0.00 0.25 0.25 95 1011.4
20170817000303 76 124 1.0 2.0 0.00 0.25 0.25 95 1011.4
20170816235803 76 124 1.0 2.0 0.00 0.25 0.25 95 1011.4
20170816235303 76 127 1.0 2.0 0.00 0.25 0.25 95 1011.5
20170816234803 76 127 0.0 1.0 0.00 0.25 0.25 95 1011.7
20170816234302 76 127 0.0 1.0 0.00 0.25 0.25 95 1011.6
20170816233803 76 127 1.0 2.0 0.00 0.25 0.25 94 1011.5
20170816233303 76 127 0.0 2.0 0.00 0.25 0.25 94 1011.5
20170816232802 76 127 1.0 2.0 0.00 0.25 0.25 94 1011.5
20170816232303 76 127 1.0 2.0 0.00 0.25 0.25 95 1011.3
20170816231802 76 127 1.0 2.0 0.00 0.25 0.25 95 1011.2
20170816231303 76 127 1.0 2.0 0.00 0.25 0.25 95 1011.2
20170816230803 76 127 0.0 1.0 0.00 0.25 0.25 95 1011.4
20170816230303 75 127 0.0 1.0 0.00 0.25 0.25 95 1011.3
20170816225803 75 127 0.0 2.0 0.00 0.25 0.25 95 1011.5
20170816225303 75 127 0.0 3.0 0.00 0.25 0.25 95 1011.6
20170816224803 75 127 0.0 2.0 0.00 0.25 0.25 95 1011.7
20170816224302 74 127 1.0 2.0 0.03 0.25 0.25 95 1011.8
20170816223803 74 127 1.0 2.0 0.06 0.25 0.25 95 1011.9
20170816223302 74 127 1.0 1.0 0.10 0.25 0.25 96 1012.0
20170816222803 74 127 1.0 2.0 0.15 0.25 0.25 95 1012.0
20170816222302 73 127 1.0 2.0 0.19 0.25 0.25 95 1012.1
20170816221803 73 127 0.0 1.0 0.20 0.25 0.25 95 1012.3
20170816221303 72 127 0.0 1.0 0.20 0.25 0.25 94 1012.3
20170816220802 72 127 0.0 1.0 0.20 0.25 0.25 93 1012.4
20170816220303 72 127 0.0 2.0 0.21 0.25 0.25 93 1012.5
20170816215803 72 127 1.0 2.0 0.21 0.25 0.25 92 1012.5
20170816215303 72 127 1.0 3.0 0.25 0.25 0.25 91 1012.7
20170816214803 72 150 2.0 6.0 0.25 0.25 0.25 90 1012.8
20170816214303 73 172 4.0 12.0 0.22 0.22 0.22 88 1013.0
20170816213803 74 182 3.0 7.0 0.19 0.19 0.19 90 1013.3
20170816213302 74 177 4.0 9.0 0.15 0.15 0.15 89 1013.3
20170816212803 75 181 7.0 14.0 0.10 0.10 0.10 87 1013.4
20170816212303 76 176 6.0 14.0 0.06 0.06 0.06 85 1013.3
20170816211803 77 196 5.0 12.0 0.05 0.05 0.05 85 1013.2
20170816211303 77 187 5.0 12.0 0.05 0.05 0.05 86 1013.1
20170816210803 78 171 3.0 5.0 0.05 0.05 0.05 85 1012.9
20170816210304 79 170 2.0 3.0 0.04 0.04 0.04 81 1012.7
20170816205803 80 174 3.0 13.0 0.04 0.04 0.04 76 1012.7
20170816205303 83 187 8.0 18.0 0.00 0.00 0.00 70 1012.7
20170816204803 84 166 3.0 7.0 0.00 0.00 0.00 65 1012.6
20170816204303 85 175 2.0 5.0 0.00 0.00 0.00 64 1012.5
20170816203803 85 155 2.0 3.0 0.00 0.00 0.00 64 1012.3
20170816203303 85 161 3.0 7.0 0.00 0.00 0.00 63 1012.3
20170816202803 85 182 3.0 5.0 0.00 0.00 0.00 62 1012.4
20170816202303 86 149 2.0 8.0 0.00 0.00 0.00 62 1012.5
20170816201803 86 170 5.0 9.0 0.00 0.00 0.00 60 1012.5
20170816201303 86 191 5.0 9.0 0.00 0.00 0.00 61 1012.6
20170816200804 87 193 3.0 9.0 0.00 0.00 0.00 63 1012.6
20170816200303 87 185 6.0 12.0 0.00 0.00 0.00 60 1012.6
20170816195803 87 159 3.0 9.0 0.00 0.00 0.00 61 1012.6
20170816195303 87 191 5.0 8.0 0.00 0.00 0.00 58 1012.8
20170816194803 87 171 6.0 10.0 0.00 0.00 0.00 57 1012.9
20170816194303 87 180 4.0 9.0 0.00 0.00 0.00 56 1012.9
20170816193803 88 121 3.0 7.0 0.00 0.00 0.00 59 1013.0
20170816193303 88 106 2.0 9.0 0.00 0.00 0.00 60 1013.0
20170816192802 88 140 4.0 12.0 0.00 0.00 0.00 59 1013.1
20170816192303 87 163 3.0 6.0 0.00 0.00 0.00 62 1013.2
20170816191803 87 201 3.0 6.0 0.00 0.00 0.00 61 1013.4
20170816191304 87 156 2.0 6.0 0.00 0.00 0.00 60 1013.6
20170816190803 88 166 3.0 8.0 0.00 0.00 0.00 59 1013.6
20170816190303 88 179 3.0 7.0 0.00 0.00 0.00 59 1013.7
20170816185803 88 124 3.0 7.0 0.00 0.00 0.00 58 1013.8
20170816185303 88 156 2.0 6.0 0.00 0.00 0.00 58 1013.8
20170816184803 88 129 3.0 5.0 0.00 0.00 0.00 58 1013.9
20170816184303 88 136 2.0 10.0 0.00 0.00 0.00 58 1014.0
20170816183803 88 177 5.0 10.0 0.00 0.00 0.00 58 1014.1
20170816183303 88 163 4.0 8.0 0.00 0.00 0.00 56 1014.0
20170816182803 88 172 3.0 6.0 0.00 0.00 0.00 59 1014.0
20170816182303 88 160 3.0 6.0 0.00 0.00 0.00 58 1014.2
20170816181803 88 173 5.0 10.0 0.00 0.00 0.00 56 1014.3
20170816181304 87 126 2.0 5.0 0.00 0.00 0.00 60 1014.3
20170816180803 87 134 4.0 10.0 0.00 0.00 0.00 57 1014.3
20170816180303 88 177 3.0 12.0 0.00 0.00 0.00 57 1014.3
20170816175803 88 194 5.0 9.0 0.00 0.00 0.00 55 1014.3
20170816175303 88 178 3.0 8.0 0.00 0.00 0.00 58 1014.2
20170816174804 88 143 2.0 6.0 0.00 0.00 0.00 61 1014.2
20170816174303 88 168 3.0 9.0 0.00 0.00 0.00 57 1014.1
20170816173803 88 148 3.0 8.0 0.00 0.00 0.00 61 1014.2
20170816173303 88 165 3.0 6.0 0.00 0.00 0.00 62 1014.2
20170816172803 87 117 3.0 7.0 0.00 0.00 0.00 61 1014.3